RYR09DJ LEAL-LFML

Flight info

Callsign RYR09DJ
Flight time N/A
Altitude 30000
Route MITOS N608 COMPI Y90 DIKUT M985 BCN N870 DIBER UN870 SOSUR
Aircraft B38M/M-SDE1FGHILORVWXY/HB1

Departure

Time 2026-04-29 12:46
Airport Alicante-Elche Miguel Hernández Airport (LEAL)

Arrival

Time N/A
Airport Marseille Provence Airport (LFML)
Time Latitude Longitude Altitude Speed Heading
2026-04-29 12:22 38.28733 -0.55003 90 ft 0 kts 286°
2026-04-29 12:35 38.28729 -0.54980 92 ft 3 kts 279°
2026-04-29 12:36 38.28728 -0.54950 93 ft 3 kts 260°
2026-04-29 12:36 38.28735 -0.54926 90 ft 3 kts 224°
2026-04-29 12:36 38.28746 -0.54917 93 ft 1 kts 189°
2026-04-29 12:39 38.28745 -0.54917 93 ft 1 kts 189°
2026-04-29 12:39 38.28731 -0.54920 92 ft 6 kts 192°
2026-04-29 12:39 38.28641 -0.54941 90 ft 20 kts 189°
2026-04-29 12:40 38.28473 -0.54976 90 ft 21 kts 189°
2026-04-29 12:40 38.28413 -0.55045 92 ft 10 kts 270°
2026-04-29 12:40 38.28409 -0.55134 93 ft 11 kts 227°
2026-04-29 12:40 38.28346 -0.55205 90 ft 14 kts 231°
2026-04-29 12:41 38.28326 -0.55320 96 ft 13 kts 272°
2026-04-29 12:41 38.28339 -0.55431 97 ft 12 kts 282°
2026-04-29 12:41 38.28352 -0.55530 99 ft 11 kts 277°
2026-04-29 12:41 38.28366 -0.55637 102 ft 16 kts 282°
2026-04-29 12:42 38.28392 -0.55802 105 ft 21 kts 281°
2026-04-29 12:42 38.28422 -0.55991 110 ft 22 kts 281°
2026-04-29 12:42 38.28448 -0.56184 111 ft 23 kts 274°
2026-04-29 12:42 38.28468 -0.56384 116 ft 22 kts 279°
2026-04-29 12:43 38.28492 -0.56568 122 ft 21 kts 280°
2026-04-29 12:43 38.28521 -0.56751 126 ft 21 kts 281°
2026-04-29 12:43 38.28547 -0.56916 135 ft 17 kts 281°
2026-04-29 12:43 38.28569 -0.57058 141 ft 15 kts 281°
2026-04-29 12:44 38.28589 -0.57183 147 ft 13 kts 281°
2026-04-29 12:44 38.28601 -0.57303 151 ft 10 kts 279°
2026-04-29 12:44 38.28603 -0.57380 154 ft 10 kts 252°
2026-04-29 12:44 38.28552 -0.57415 156 ft 9 kts 191°
2026-04-29 12:45 38.28473 -0.57430 157 ft 15 kts 171°
2026-04-29 12:45 38.28423 -0.57296 150 ft 21 kts 102°
2026-04-29 12:45 38.28382 -0.56978 136 ft 74 kts 99°
2026-04-29 12:45 38.28243 -0.55997 111 ft 153 kts 100°
2026-04-29 12:46 38.28134 -0.55296 337 ft 161 kts 102°
2026-04-29 12:46 38.27867 -0.53825 893 ft 178 kts 104°
2026-04-29 12:46 38.27576 -0.52293 1575 ft 189 kts 104°
2026-04-29 12:46 38.27340 -0.50575 2272 ft 208 kts 93°
2026-04-29 12:47 38.27542 -0.48685 2781 ft 222 kts 69°
2026-04-29 12:47 38.28337 -0.46982 3330 ft 227 kts 53°
2026-04-29 12:47 38.29239 -0.45338 3937 ft 236 kts 54°
2026-04-29 12:47 38.30194 -0.43553 4750 ft 246 kts 54°
2026-04-29 12:48 38.31151 -0.41741 5833 ft 249 kts 54°
2026-04-29 12:48 38.32133 -0.39871 6672 ft 262 kts 55°
2026-04-29 12:48 38.33087 -0.37809 7315 ft 281 kts 66°
2026-04-29 12:48 38.33812 -0.35428 8081 ft 291 kts 69°
2026-04-29 12:49 38.34539 -0.33018 9099 ft 294 kts 69°
2026-04-29 12:49 38.34781 -0.32223 9396 ft 297 kts 69°